This is the latest recevied weather packets stored in our database for station/object SV1RVP-13. If no packets are shown the sender has not sent any weather packets the latest 10 day(s).
| Time | Temp. | Humidity | Pressure | Rain* | Wind** | Luminosity | Snow |
|---|---|---|---|---|---|---|---|
| 1788043732 | 27.22° C | 51% | 1014.8 hPa | 0 mm | - | - | - |
| 1788043118 | 27.22° C | 51% | 1014.7 hPa | 0 mm | - | - | - |
| 1788042522 | 27.22° C | 50% | 1014.8 hPa | 0 mm | - | - | - |
| 1788041913 | 27.22° C | 49% | 1014.7 hPa | 0 mm | - | - | - |
| 1788041315 | 27.78° C | 48% | 1014.9 hPa | 0 mm | - | - | - |
| 1788040709 | 27.78° C | 49% | 1015 hPa | 0 mm | - | - | - |
| 1788040136 | 27.78° C | 49% | 1015 hPa | 0 mm | - | - | - |
| 1788039521 | 27.78° C | 46% | 1015.2 hPa | 0 mm | - | - | - |
| 1788038922 | 27.78° C | 44% | 1015.1 hPa | 0 mm | - | - | - |
| 1788038311 | 27.78° C | 43% | 1015.2 hPa | 0 mm | - | - | - |
| 1788037713 | 27.78° C | 43% | 1015.3 hPa | 0 mm | - | - | - |
| 1788037110 | 27.78° C | 45% | 1015.2 hPa | 0 mm | - | - | - |
| 1788036529 | 27.78° C | 50% | 1015.2 hPa | 0 mm | - | - | - |
| 1788035917 | 27.78° C | 52% | 1015.3 hPa | 0 mm | - | - | - |
| 1788035318 | 27.78° C | 53% | 1015.2 hPa | 0 mm | - | - | - |
| 1788034708 | 27.78° C | 54% | 1015.2 hPa | 0 mm | - | - | - |
| 1788034111 | 27.78° C | 53% | 1015.3 hPa | 0 mm | - | - | - |
| 1788033524 | 27.78° C | 53% | 1015.1 hPa | 0 mm | - | - | - |
| 1788032916 | 27.78° C | 53% | 1015.2 hPa | 0 mm | - | - | - |
| 1788032312 | 28.33° C | 53% | 1015.1 hPa | 0 mm | - | - | - |
| 1788031731 | 28.33° C | 52% | 1015.1 hPa | 0 mm | - | - | - |
| 1788031124 | 28.33° C | 52% | 1015.2 hPa | 0 mm | - | - | - |
| 1788030524 | 28.33° C | 51% | 1015.1 hPa | 0 mm | - | - | - |
| 1788029916 | 28.33° C | 51% | 1015.1 hPa | 0 mm | - | - | - |
| 1788029332 | 28.33° C | 51% | 1015 hPa | 0 mm | - | - | - |
* Rain since midnight (hover to see other rain measurements)
** Current wind speed in m/s (hover to see current wind gust speed)